Location: ???? ?????
(37.9132°N, 22.9869°E)
Time: 19:51:53
(UTC+00:00)

Cosmos 1602 Rocket - Pass Details

Date: 04 August 2024
Orbit: 601 x 627 km, 82.5° (Epoch: 14 September)

Event Time Altitude Azimuth Distance (km) Brightness Sun altitude
Exits shadow 19:32:37 39° 78° (ENE) 912 4.1 -20.6°
Drops below altitude 10° 19:36:15 10° 23° (NNE) 1,950 6.4 -21.1°
Sets 19:38:34 0° 16° (NNE) 2,857 7.4 -21.4°
